Probability
0 0 0 0 0 0 0 0 0 0 0 0 0 0 0 0 0 0 0 0 0 1 3 3 3 3 3 3 2 1 0 0 0 0 0 1 1 2 3 1 0 0 0
0 0 0 0 0 0 0 0 0 0 0 0 0 0 0 0 0 0 0 0 1 2 3 3 3 3 3 3 2 1 1 0 0 0 1 1 2 3 3 2 1 0 0
0 0 0 0 0 0 0 0 0 0 0 0 0 0 0 0 0 0 0 0 1 2 3 3 3 3 4 3 3 4 3 2 1 1 1 2 2 3 3 3 2 0 0
0 0 0 0 0 0 0 0 0 0 0 0 0 0 0 0 0 0 0 0 1 2 3 3 4 4 5 6 7 8 6 4 3 2 1 2 2 3 3 2 1 0 0
0 0 0 0 0 0 0 0 0 0 0 0 0 0 0 0 0 0 0 0 0 1 2 3 4 5 7 8 10 10 8 6 4 1 0 1 2 2 1 1 0 0 0
0 0 0 0 0 0 0 0 0 0 0 0 0 0 0 0 0 0 1 1 1 2 3 3 4 5 7 9 9 9 8 7 4 1 0 0 1 1 0 0 0 0 0
0 0 0 0 0 0 0 0 0 0 0 0 0 0 0 0 0 0 0 1 2 3 3 3 3 5 7 8 7 7 7 6 2 1 1 1 0 0 0 1 1 1 0
0 0 0 0 0 0 0 0 0 0 0 0 0 0 0 0 0 0 0 0 1 2 2 2 2 4 6 6 6 6 6 5 2 1 2 1 0 0 0 1 2 2 1
0 0 0 0 0 0 0 0 0 0 0 0 0 0 0 0 0 0 0 0 0 1 1 1 2 3 4 5 5 5 6 5 2 2 3 2 1 0 0 1 2 3 3
0 0 0 0 0 0 0 0 0 0 0 0 0 0 0 0 0 0 0 0 0 0 0 1 2 3 3 4 4 5 6 5 3 3 3 2 1 0 0 1 2 3 3
0 0 0 0 0 0 0 0 0 0 0 0 0 0 0 0 0 0 0 0 0 0 0 1 2 3 3 3 3 4 4 4 3 3 3 1 0 0 0 0 1 2 3
0 0 0 0 0 0 0 0 0 0 0 0 0 0 0 0 0 0 0 0 0 0 0 0 1 2 2 3 3 3 3 3 3 3 2 1 0 0 0 0 1 2 2
0 0 0 0 0 0 0 0 0 0 0 0 0 0 0 0 0 0 0 0 0 0 0 0 0 1 1 1 2 2 2 3 3 3 2 0 0 0 0 0 0 1 1
0 0 0 0 0 0 0 0 0 0 0 0 0 0 0 0 0 0 0 0 0 0 0 0 0 0 0 0 1 1 1 1 2 2 1 0 0 0 0 0 0 0 0
0 0 0 0 0 0 0 0 0 0 0 0 0 0 0 0 0 0 0 0 0 0 0 0 0 0 0 0 0 0 0 0 1 1 1 0 0 0 0 1 1 0 0
0 0 0 0 0 0 0 0 0 0 0 0 0 0 0 0 0 0 0 0 0 0 0 0 0 0 0 0 0 0 0 0 0 0 0 0 0 0 0 1 2 1 0
0 1 1 1 1 0 0 0 0 0 0 0 0 0 0 0 0 0 0 0 0 0 0 0 0 0 0 0 0 0 0 0 0 0 0 0 0 0 0 1 1 1 0
0 1 2 2 2 1 1 0 0 0 1 1 1 1 0 0 0 0 0 0 0 0 0 0 0 0 0 0 0 0 0 0 0 0 0 0 0 0 0 0 0 0 0
0 0 1 1 2 2 2 1 1 0 1 2 3 2 1 0 0 0 0 0 0 0 0 0 0 0 0 0 0 0 0 0 0 0 0 0 0 0 0 0 0 0 0
0 0 0 0 1 2 3 3 2 2 2 3 3 3 1 1 0 0 0 0 0 0 0 0 0 0 0 0 0 0 0 0 0 0 0 0 0 0 0 0 0 0 0
0 0 0 0 1 2 3 4 3 3 3 3 3 2 2 1 0 0 0 0 0 0 0 0 0 0 0 0 0 0 0 0 0 0 0 0 0 0 0 0 0 0 0
1 0 0 1 1 1 2 3 4 4 3 3 3 2 1 1 0 0 0 0 0 0 0 0 0 0 0 0 0 0 0 0 0 0 0 0 0 0 0 0 0 0 0
2 1 0 1 1 1 1 2 3 3 3 3 3 3 2 1 1 1 1 0 0 0 0 0 0 0 0 0 0 0 0 0 0 0 0 0 0 0 0 0 0 0 0
4 2 1 1 1 2 2 2 3 3 3 3 3 3 2 1 1 1 1 0 0 0 0 0 0 0 0 0 0 0 0 0 0 0 0 0 0 0 0 0 0 0 0
5 4 3 2 1 1 2 3 3 3 3 3 3 3 2 1 0 0 0 0 0 0 0 0 0 0 0 0 0 0 0 0 0 0 0 0 0 0 0 0 0 0 0
4 5 5 3 1 0 1 3 3 3 3 3 3 3 2 1 0 0 0 0 0 0 0 0 0 0 0 0 0 0 0 0 0 0 0 0 0 0 0 0 0 0 0
Wind_Speed
4 5 7 7 7 8 8 9 9 9 9 9 9 9 9 9 9 9 9 9 9 9 9 9 10 10 10 10 10 10 10 9 9 8 7 7 7 8 8 7 6 7 9
4 5 6 7 8 8 8 8 8 8 9 9 9 9 9 9 9 9 10 10 11 11 11 10 10 11 11 11 11 11 10 10 9 8 7 8 9 9 9 8 7 7 9
4 4 5 7 8 8 8 8 8 8 9 9 9 9 9 10 10 10 10 11 11 12 11 11 11 11 11 11 11 11 11 10 9 8 6 6 9 10 9 9 9 9 9
4 5 7 8 7 8 8 8 8 8 8 9 9 9 9 10 10 11 10 11 11 11 11 12 11 11 11 11 12 12 11 11 9 6 5 7 7 10 9 9 9 9 9
5 5 8 7 7 8 8 8 8 8 8 9 9 9 9 10 10 10 11 11 11 11 11 11 11 11 11 12 12 12 11 10 8 7 7 7 7 10 10 9 9 9 9
5 5 8 6 7 7 8 8 9 9 9 9 9 9 10 10 10 10 10 11 11 12 11 11 11 11 11 11 12 11 11 9 7 7 7 7 8 10 11 10 10 10 9
5 5 7 7 7 7 8 8 8 9 9 9 9 9 10 10 10 10 11 11 12 12 12 11 10 11 12 12 12 11 11 9 7 7 7 7 9 11 11 11 11 10 9
5 5 6 7 7 7 8 9 9 9 9 10 10 9 10 10 10 11 11 12 12 12 12 12 11 12 13 12 12 11 10 7 8 8 8 8 11 11 11 11 11 10 10
4 5 5 5 6 7 8 8 9 9 9 10 10 10 10 10 10 11 11 12 12 12 12 13 14 15 15 13 12 12 10 8 7 6 8 7 11 11 11 11 11 11 10
4 4 5 5 5 5 7 8 8 9 9 9 9 9 9 10 10 10 11 12 12 12 13 14 15 16 15 14 13 11 9 6 7 8 6 8 11 11 11 10 11 10 10
4 3 4 4 5 5 6 6 6 7 6 5 7 7 5 6 8 8 12 12 12 13 13 14 14 14 13 13 12 9 6 5 8 7 7 10 10 10 11 10 10 10 10
4 4 4 4 4 5 4 4 4 4 4 4 5 6 5 6 7 7 12 12 12 12 12 12 11 9 6 7 8 6 5 7 6 6 7 11 9 9 10 10 10 10 9
4 4 3 4 4 4 3 3 3 3 3 4 5 5 5 5 5 5 4 6 6 6 6 7 6 5 6 6 5 5 6 5 5 5 8 10 9 9 9 9 9 9 9
3 3 3 3 3 4 4 3 3 3 3 3 3 5 4 3 3 4 3 4 4 4 5 4 4 6 7 7 7 7 7 5 5 5 7 11 9 9 9 9 9 9 8
3 3 3 2 2 3 4 2 3 3 3 4 3 3 4 3 4 4 4 4 4 4 4 4 5 6 6 7 6 7 7 7 6 6 6 11 10 10 10 9 9 9 8
2 3 3 2 2 2 2 2 3 3 3 3 3 4 4 3 4 4 4 4 4 4 4 4 5 5 5 5 6 6 6 6 6 6 6 8 10 10 9 9 8 8 8
2 3 3 2 2 2 3 3 2 2 3 3 3 3 4 4 4 4 4 4 4 4 4 4 5 4 5 5 6 6 5 6 5 6 5 5 6 9 10 8 8 8 7
2 3 4 2 3 3 2 2 2 2 2 2 2 2 4 4 4 4 3 3 4 3 3 3 3 4 4 4 4 4 4 4 5 5 4 4 4 4 7 9 9 8 7
2 2 3 3 2 3 3 2 2 2 2 2 2 2 2 3 3 3 3 3 4 3 3 3 3 3 4 4 4 4 4 4 4 4 5 5 4 4 4 6 7 8 7
2 2 2 3 2 3 2 2 2 2 2 2 2 2 3 2 3 3 3 3 3 3 2 2 3 3 3 3 3 4 3 3 3 4 4 4 3 4 4 3 3 5 7
2 2 3 3 3 2 2 2 2 2 2 2 2 3 2 2 2 2 2 3 3 2 2 2 2 3 2 2 2 3 3 3 4 3 2 2 3 4 3 3 2 2 3
2 2 2 3 3 3 2 2 1 2 2 2 2 2 2 2 2 2 2 2 3 2 3 3 2 1 2 1 1 1 2 3 2 3 2 2 3 2 3 3 3 2 2
2 2 2 3 3 3 3 2 2 2 2 3 2 2 1 2 1 1 2 2 2 3 2 3 3 2 2 1 1 2 1 1 2 2 2 2 2 2 2 3 3 3 3
3 2 3 3 3 3 3 3 4 3 2 2 2 2 2 1 1 1 1 2 2 2 2 3 3 2 2 2 1 1 2 1 1 2 2 2 2 2 2 2 2 3 3
2 2 2 3 3 3 3 3 3 3 2 2 2 3 2 2 1 1 1 1 1 2 2 2 2 2 2 1 1 1 1 1 2 1 1 1 1 1 2 2 2 2 3
2 2 3 3 3 3 3 3 4 3 3 3 3 2 2 2 1 1 1 1 1 1 2 2 3 3 3 2 2 2 2 2 2 1 1 1 1 2 2 2 2 2 2
Wind_Direction
42 39 37 25 36 38 40 45 53 56 59 60 61 64 64 64 63 64 67 67 72 83 88 86 89 90 92 94 98 100 99 96 94 94 92 96 106 112 111 109 117 108 102
51 52 55 35 40 42 42 48 56 59 60 63 63 63 65 67 65 68 70 70 75 82 84 86 89 91 92 92 93 95 94 92 90 90 94 99 107 109 107 100 87 93 103
64 59 66 48 44 44 45 47 56 62 62 63 64 64 65 64 64 67 71 72 75 79 81 85 87 90 91 91 93 92 90 89 87 88 94 96 102 102 102 99 96 97 100
70 60 56 47 42 43 46 49 56 60 62 64 65 65 65 64 64 66 72 74 76 79 81 84 87 89 89 90 90 90 88 84 80 84 83 79 87 96 99 100 98 95 96
74 65 65 45 42 43 47 52 56 62 63 64 65 65 64 64 67 68 71 72 75 79 80 83 88 90 91 91 91 90 88 85 79 75 74 75 78 87 92 94 94 93 93
82 71 70 48 45 46 50 55 59 63 65 63 64 66 67 66 69 72 70 71 76 79 78 81 87 92 94 93 92 89 87 85 82 74 74 76 81 84 84 86 88 88 89
82 74 75 61 52 52 56 63 62 64 66 68 68 68 68 68 69 73 72 73 76 79 78 80 86 95 95 91 91 89 87 84 80 79 77 77 79 84 84 83 86 85 85
77 74 81 88 67 60 59 63 65 67 68 67 69 70 69 68 70 73 75 77 79 80 78 75 76 91 95 90 88 87 83 77 83 80 77 76 80 83 84 82 82 82 80
85 76 72 81 93 92 71 61 64 68 69 68 69 71 70 70 71 75 76 76 78 80 79 74 78 90 89 87 85 82 79 69 74 75 78 75 79 82 83 82 80 78 78
89 80 76 73 73 83 93 77 70 70 69 72 73 75 79 83 82 80 80 76 78 81 81 79 79 83 83 82 80 77 74 72 71 74 72 77 78 81 81 81 81 79 78
99 85 75 74 76 75 78 91 96 91 80 94 94 91 92 84 82 82 73 76 78 79 79 79 79 83 86 85 79 74 67 67 70 67 67 72 76 80 80 80 81 80 77
106 93 81 79 79 82 80 87 78 84 85 76 80 86 81 79 75 77 83 78 78 82 83 79 80 87 88 89 88 80 70 69 65 69 72 70 72 77 80 81 82 79 77
100 97 84 85 85 82 89 79 74 75 80 78 80 90 87 89 96 85 86 97 94 93 87 90 90 76 75 72 69 70 66 66 65 65 70 68 73 78 80 81 80 78 77
102 98 92 87 93 86 86 85 82 85 82 79 79 85 89 87 87 89 85 81 83 84 83 80 78 82 78 76 74 72 71 67 67 68 66 63 69 77 79 79 78 76 75
130 124 108 97 86 87 80 75 78 76 75 86 81 82 89 94 95 94 89 81 81 85 90 83 81 79 77 73 72 70 70 71 71 73 72 64 62 69 73 74 75 75 74
145 137 120 115 103 97 96 90 80 82 86 80 83 82 86 87 90 94 95 93 87 81 80 86 86 83 79 76 74 73 69 69 70 74 75 73 63 59 63 71 70 71 70
147 141 124 122 115 111 98 82 84 88 92 87 85 82 86 89 92 97 94 97 97 97 96 88 88 85 85 83 77 71 69 65 67 68 69 70 76 69 59 62 63 65 65
144 135 130 142 143 121 103 103 103 105 102 97 88 81 85 95 94 92 92 95 101 102 99 97 97 95 89 84 79 73 72 71 68 68 74 74 66 68 71 58 53 55 58
150 145 142 143 145 129 116 115 99 106 107 97 91 85 83 88 101 106 99 106 105 106 104 106 97 93 93 89 85 78 69 68 66 66 69 69 70 66 70 80 64 52 52
152 158 146 145 152 132 135 129 115 110 109 93 90 103 95 99 109 115 132 129 121 120 116 121 114 103 94 97 94 83 75 75 71 56 55 61 54 57 54 62 79 78 60
153 161 151 156 154 150 143 144 136 129 117 103 94 93 99 103 117 126 145 141 140 133 138 140 127 123 120 131 133 112 98 76 68 69 58 57 63 53 53 57 52 58 84
149 164 168 160 158 157 157 159 150 123 117 107 103 96 97 122 136 156 170 157 154 148 161 156 152 149 147 214 250 180 155 137 90 71 73 59 62 65 48 49 58 64 55
161 171 176 171 161 165 164 155 138 123 138 139 127 112 100 119 144 170 168 183 176 178 176 184 185 193 178 180 311 310 302 102 127 103 73 77 66 53 51 47 52 55 62
174 180 181 173 167 166 165 168 162 165 165 157 143 137 136 130 145 140 157 194 189 185 186 198 203 207 207 187 171 306 330 18 244 145 143 97 69 53 47 62 60 58 59
167 174 182 173 171 172 176 175 191 182 175 153 149 149 151 145 145 145 172 199 203 202 206 203 206 223 222 230 221 194 175 228 264 255 156 147 130 96 66 65 80 68 62
175 177 180 177 174 179 192 192 195 183 184 175 176 166 169 158 169 162 204 205 220 228 222 213 215 215 234 239 247 237 231 238 247 244 212 176 148 113 97 71 76 75 68